Terug naar catalogus

STARLINK-5124

ActiefCommunicatieVLEO
NORAD 54011·PAYLOAD·🇺🇸 United States

Gelanceerd Oct 5, 2022 vanaf Vandenberg Space Force Base

Loading…

Volgende Passages (komende 24 uur)

TLE

VersSource: CelesTrak SupGP

Epoch: Sep 14, 2026, 21:54 UTC

1 54011C 22125AZ  26257.91298611  .00025832  00000+0  76326-3 0  2575
2 54011  53.1598  63.5964 0001163  78.1294  89.6801 15.34376064    11

Volg STARLINK-5124 in realtime met AllMySat

Download on the App Store